Theta_e
324 325 324 325 324 325 323 324 325 325 325 326 326 323 321 322 321 322 323 324 324 321 323 323 322 321 321
320 322 325 326 325 324 323 322 325 326 325 325 326 326 327 327 327 326 323 324 324 324 324 323 322 321 321
322 323 322 323 324 324 327 327 327 327 327 326 326 327 327 327 326 327 325 324 323 323 324 323 321 321 320
322 322 320 321 322 324 324 326 326 327 326 325 326 326 326 326 326 326 325 323 323 324 323 322 321 320 320
323 322 321 323 323 324 324 323 326 325 324 326 325 325 325 325 326 325 325 325 324 322 322 321 320 319 316
320 320 321 321 322 322 321 323 324 323 323 325 323 323 322 323 322 322 322 322 322 321 321 318 314 311 310
319 320 321 321 320 320 319 321 322 323 323 321 320 319 319 320 322 322 321 321 320 319 314 310 309 309 309
320 321 320 318 320 321 322 321 322 320 318 317 315 316 315 317 318 319 318 317 313 310 310 309 309 309 308
318 320 321 320 319 321 320 320 317 314 313 315 313 314 312 313 314 313 311 310 310 310 309 309 309 308 308
315 317 317 314 313 313 314 314 313 311 311 313 311 311 310 310 309 309 308 308 307 306 307 307 307 307 307
310 311 311 313 313 313 312 313 312 312 311 312 312 311 308 304 304 303 303 303 303 303 303 303 304 304 304
307 306 307 311 310 305 305 306 305 304 304 304 302 302 300 300 300 301 301 300 298 297 297 297 297 297 298
302 302 300 298 296 297 298 296 295 295 295 295 295 295 295 294 294 294 294 294 293 293 294 294 295 296 297
293 293 293 293 292 292 292 292 292 292 293 293 293 293 293 293 293 293 293 292 292 292 293 293 293 294 294
290 290 290 290 290 290 290 290 290 290 290 290 291 291 291 291 291 291 290 290 290 291 291 292 292 293 293
289 289 289 289 289 288 288 288 288 288 288 288 288 288 288 288 289 289 289 289 289 289 289 289 290 290 291
288 287 287 287 287 286 286 286 286 286 286 286 286 286 287 287 288 288 288 288 288 289 288 288 288 289 288
Wind_Speed
32 33 41 43 36 35 34 37 35 34 27 28 38 41 41 43 42 41 42 42 38 37 36 32 33 30 30
38 33 32 34 37 42 43 39 37 35 31 34 37 39 37 36 42 42 43 42 40 42 37 33 32 30 31
35 35 34 37 36 35 34 38 37 35 34 33 38 35 37 39 45 45 42 41 40 40 38 32 30 31 28
32 33 32 36 34 38 36 35 31 31 34 34 32 37 37 35 37 41 40 40 42 43 32 29 28 26 27
31 31 31 36 34 34 38 33 33 35 34 32 33 33 32 37 40 33 41 38 37 29 27 26 25 25 25
31 33 34 34 34 36 35 36 37 34 32 34 34 29 27 24 24 28 25 24 26 26 24 22 22 22 22
36 34 30 31 32 35 33 37 37 36 31 28 26 22 22 22 24 22 21 21 22 22 18 19 19 19 19
37 44 39 33 36 34 38 38 37 30 26 23 21 20 18 17 17 17 17 15 15 15 16 18 19 20 20
31 34 32 33 35 31 27 30 28 23 23 17 18 16 12 11 10 10 10 12 14 16 17 19 20 21 21
15 12 10 6 6 9 16 25 23 13 14 12 16 14 8 9 9 11 12 13 16 16 18 19 19 19 19
16 17 14 13 10 8 7 4 3 1 8 7 11 14 11 9 12 12 12 12 12 13 15 16 18 20 21
5 7 8 5 3 3 2 4 7 7 9 11 10 13 13 13 11 13 15 16 17 17 19 21 21 21 22
3 4 4 3 3 3 5 7 5 5 6 7 8 8 10 11 10 12 12 12 14 16 17 19 18 20 21
7 7 7 7 5 5 4 4 5 4 4 5 5 7 9 10 11 12 13 11 11 13 17 21 20 20 21
6 6 5 5 4 3 2 3 3 4 4 6 7 9 10 11 12 12 14 16 17 16 18 21 21 22 21
3 3 2 1 1 0 1 1 2 3 5 7 9 10 10 8 8 9 11 14 15 17 17 19 23 22 21
2 2 1 1 2 2 2 3 4 4 6 7 7 9 9 8 9 11 15 16 18 21 21 19 22 25 24
Wind_Direction
249 252 260 260 257 251 259 253 252 252 252 249 246 244 242 245 249 253 252 245 244 257 255 258 263 267 275
256 253 252 257 258 259 258 253 254 258 254 255 255 254 256 254 254 252 241 240 243 252 247 254 259 264 270
248 254 253 258 261 265 257 254 254 257 254 262 256 257 258 259 258 251 241 237 245 252 252 253 257 265 261
255 258 259 253 258 257 259 261 262 257 255 260 259 262 260 260 254 254 240 247 248 244 241 248 256 258 259
252 258 256 251 253 258 257 261 251 264 262 260 262 262 264 254 253 248 232 222 223 234 241 249 253 255 257
265 257 260 258 256 257 262 254 259 261 260 259 257 261 257 245 228 213 212 221 230 236 237 244 250 252 254
264 263 259 256 268 266 257 262 262 260 261 246 231 216 212 202 214 222 225 230 234 235 237 240 244 250 258
259 260 255 259 259 259 262 257 252 244 221 213 199 200 198 204 206 213 220 225 231 234 240 245 249 254 260
265 259 253 261 263 259 240 262 234 197 190 193 177 182 183 189 207 212 219 230 239 244 247 252 256 257 259
199 218 228 197 177 202 199 197 192 160 168 163 169 175 178 210 221 228 234 239 246 251 251 252 254 256 258
128 128 123 116 109 121 124 130 204 196 174 200 201 203 197 185 203 213 221 228 239 249 258 259 261 262 264
121 110 102 90 135 164 231 215 249 243 216 203 202 197 203 202 206 222 235 248 254 256 263 266 264 267 268
129 123 111 119 142 192 210 216 219 209 214 225 235 233 227 230 231 234 244 244 258 262 263 270 269 266 265
120 125 135 147 146 146 157 184 208 216 233 249 255 262 266 263 270 278 288 294 286 278 274 275 276 277 277
128 127 131 136 137 147 172 197 210 222 242 259 270 278 281 282 286 293 294 292 291 290 282 278 276 277 276
139 141 138 111 106 68 313 296 296 291 297 302 299 302 304 307 311 308 302 302 297 294 293 296 292 293 289
99 91 56 21 353 332 318 306 303 304 308 304 305 305 305 306 278 290 280 288 293 295 298 294 296 295 298